Dewpoint
-3 -1 1 -2 -1 -2 -5 -3 -5 -3 -4 -2 -1 -4 -4 -3 0 2 3 2 1 0 -1 -1 -1 -1 -2 -3 -3 -4 -6 -7 -7 -5 -2 1 0 -3 -4 -7 -16 -4 -0 -1
-1 2 -2 -3 -3 -3 -4 -4 -4 -3 -6 -5 -4 -3 -5 -5 -3 -2 -1 -1 -2 -3 -4 -5 -5 -7 -8 -8 -8 -8 -8 -7 -6 -3 -3 -3 -2 -2 -3 -8 -15 -5 -0 -0
1 -2 -3 -4 -3 -2 -3 -5 -2 -4 -5 -8 -5 -3 -5 -7 -7 -6 -5 -5 -6 -5 -5 -6 -7 -6 -4 -9 -9 -9 -8 -7 -3 -4 -2 -2 -2 -3 -2 -2 -10 -8 0 1
-2 -4 -4 -3 -2 -1 -0 -4 -4 -3 5 6 -6 2 -4 -7 -6 -7 -5 -5 -5 -4 -3 -4 -6 -4 -5 -9 -9 -8 -6 -3 -3 -2 -2 -3 -3 -3 -3 -5 -7 -12 -0 1
-0 -1 -2 -2 -1 -2 0 -5 -4 -3 4 0 -5 8 -5 -9 -6 -6 -5 -4 -3 -3 -3 -2 -1 -5 -6 -8 -7 -5 -3 -3 -3 -5 -5 -4 -4 -3 -2 -3 -5 -5 0 3
-2 -2 -1 -2 -3 -4 -6 -6 -4 0 7 11 -2 1 5 -7 -8 -6 -5 -4 -3 -3 -3 -2 -4 -4 -4 -4 -4 -4 -3 -4 -5 -4 -4 -3 -3 -3 -3 -2 -2 -4 -0 2
-2 -1 -2 -2 -3 -4 -3 -2 9 11 10 3 2 4 -0 -4 -5 -5 -4 -3 -3 -3 -3 -3 -2 -1 -1 -2 -3 -3 -4 -4 -3 -4 -4 -3 -4 -4 -3 -2 -3 -5 -3 3
3 3 -0 -2 -0 1 -1 2 10 9 5 1 -0 2 -0 -4 -4 -3 -4 -3 -3 -4 -3 -3 -2 -2 -2 -5 -5 -3 -3 -4 -4 -5 -3 -3 -5 -4 -3 -2 -3 -5 -6 -3
-3 1 -2 -2 -2 -1 -0 2 -3 0 -2 2 -2 -4 -4 -4 -3 -4 -4 -4 -4 -4 -4 -4 -3 -2 -2 -4 -5 -5 -4 -3 -3 -3 -4 -5 -5 -4 -4 -3 -2 -4 -5 -6
-6 1 -2 -2 -2 -3 -2 -4 1 5 8 4 -1 -3 6 -0 -3 -4 -4 -4 -3 -4 -4 -3 -3 -4 -5 -5 -5 -6 -6 -6 -7 -9 -9 -9 -9 -7 -6 -4 -3 -3 -4 -3
-6 -2 -0 -2 -2 0 -1 -0 -4 -3 -3 1 -3 5 -1 4 -3 -3 -3 -3 -3 -3 -4 -5 -5 -5 -8 -9 -9 -10 -10 -10 -10 -11 -11 -10 -9 -9 -9 -9 -9 -8 -6 -4
-5 -3 1 -1 -3 -3 -3 -3 -5 1 0 -2 0 7 -6 -2 -3 -3 -3 -3 -3 -4 -5 -5 -7 -8 -9 -9 -9 -9 -9 -9 -9 -8 -9 -9 -9 -9 -10 -11 -10 -9 -9 -5
-4 -3 1 -2 -1 -2 -1 -4 -4 -5 -0 0 4 8 -5 -3 -2 -2 -2 -2 -3 -5 -5 -5 -5 -6 -8 -9 -9 -9 -9 -9 -9 -9 -9 -8 -8 -9 -9 -10 -11 -10 -8 -6
-3 -5 -4 2 -2 -2 -0 -2 -4 -2 1 -4 5 3 -6 -3 -2 -2 -2 -3 -2 -5 -6 -5 -5 -7 -8 -9 -9 -10 -10 -10 -10 -9 -9 -9 -9 -8 -8 -9 -9 -10 -8 -8
-4 -3 -5 -6 -7 -3 -2 -3 -2 0 -3 -3 -5 -3 -6 -6 -3 -2 -3 -2 -3 -5 -5 -5 -7 -8 -8 -9 -9 -9 -10 -10 -11 -11 -10 -9 -9 -9 -8 -9 -9 -9 -8 -8
-4 -5 -4 -2 -4 -3 -3 -5 -5 -4 -4 -6 -7 -7 -11 -7 -4 -4 -3 -4 -6 -5 -5 -6 -7 -7 -8 -9 -9 -9 -9 -10 -10 -10 -10 -10 -9 -9 -9 -9 -8 -7 -7 -7
-4 -5 -3 -3 -5 -6 -6 -8 -6 -5 -5 -5 -5 -7 -8 -8 -7 -5 -4 -6 -6 -6 -6 -6 -7 -7 -8 -9 -9 -9 -8 -9 -9 -9 -9 -9 -9 -9 -8 -8 -8 -7 -7 -7
-3 -4 -4 -4 -6 -8 -10 -7 -5 -8 -6 -6 -5 -6 -5 -5 -5 -4 -5 -6 -7 -6 -6 -6 -6 -6 -7 -6 -5 -4 -5 -6 -7 -7 -8 -9 -9 -9 -9 -8 -8 -8 -8 -8
-3 -4 -4 -4 -8 -11 -13 -9 -8 -6 -9 -7 -5 -5 -5 -4 -5 -6 -6 -6 -6 -7 -7 -6 -5 -4 -4 -4 -5 -9 -9 -9 -9 -9 -8 -8 -9 -9 -8 -8 -8 -8 -8 -8
-2 -2 -3 -4 -5 -7 -9 -6 -7 -7 -7 -8 -6 -6 -4 -5 -3 -6 -6 -7 -6 -6 -6 -5 -4 -4 -5 -8 -12 -13 -13 -13 -12 -12 -11 -10 -9 -8 -9 -9 -9 -9 -7 -7
-0 -1 -1 -4 -4 -6 -8 -6 -7 -7 -5 -6 -5 -5 -4 -4 -6 -6 -6 -7 -7 -6 -5 -5 -6 -9 -12 -13 -13 -14 -14 -15 -16 -17 -16 -14 -11 -9 -8 -8 -9 -9 -10 -10
-2 -0 -0 -2 -1 0 -7 -5 -5 -7 -7 -6 -6 -6 -6 -6 -6 -6 -7 -6 -5 -5 -7 -10 -13 -13 -14 -15 -15 -15 -16 -17 -18 -18 -19 -19 -18 -15 -11 -8 -7 -7 -8 -9
-4 -5 -4 -3 -3 -6 -6 -5 -6 -6 -7 -6 -6 -6 -6 -5 -5 -6 -4 -5 -7 -10 -12 -13 -13 -13 -13 -14 -16 -17 -18 -20 -21 -21 -22 -22 -22 -21 -18 -11 -6 -5 -5 -6
-6 -6 -5 -5 -7 -5 -5 -5 -5 -6 -6 -6 -6 -5 -6 -6 -6 -5 -5 -7 -10 -13 -12 -12 -12 -13 -14 -17 -20 -21 -22 -22 -22 -22 -23 -23 -23 -23 -22 -20 -13 -4 -2 -3
-7 -5 -6 -6 -7 -7 -6 -6 -5 -6 -6 -6 -6 -6 -6 -6 -5 -6 -8 -11 -12 -11 -12 -15 -18 -19 -19 -20 -20 -21 -22 -23 -23 -23 -21 -19 -18 -17 -16 -14 -13 -13 -8 -2
-7 -7 -5 -8 -8 -7 -7 -6 -6 -5 -5 -5 -6 -6 -6 -6 -8 -10 -9 -10 -11 -14 -15 -16 -18 -19 -19 -20 -21 -21 -22 -23 -23 -23 -22 -21 -19 -18 -13 -13 -14 -14 -13 -12
Wind_Speed
8 8 14 17 15 3 11 13 14 12 3 9 14 8 7 9 8 10 10 11 11 10 9 9 11 14 15 16 16 15 14 13 12 12 12 10 11 16 17 19 19 18 17 15
7 8 6 7 5 2 7 13 12 5 1 4 8 11 9 7 7 8 10 11 10 9 9 8 9 13 15 15 14 14 12 13 11 12 13 13 15 17 19 19 18 18 17 15
7 5 1 6 9 7 5 13 12 8 6 3 6 11 7 4 5 5 4 5 5 6 6 7 9 10 12 12 11 11 12 11 10 12 13 14 16 18 18 16 19 18 18 16
8 4 3 8 6 3 6 5 5 11 9 4 3 5 11 9 8 6 6 5 4 2 1 1 2 4 7 9 10 10 10 9 10 12 13 14 15 17 16 19 18 17 16 15
3 7 6 5 3 3 3 2 7 6 3 2 5 1 7 8 9 9 8 6 4 3 3 4 4 3 3 4 6 7 8 9 10 10 10 13 16 17 18 18 18 16 14 14
6 5 5 4 5 5 8 9 8 4 3 1 3 2 5 8 10 10 9 7 5 4 4 4 3 3 1 2 5 7 9 8 8 10 12 16 18 19 19 18 17 15 13 13
4 5 3 5 5 3 3 8 2 2 1 3 0 2 3 7 4 8 8 7 5 4 4 3 2 1 2 5 8 10 11 9 11 13 16 20 22 21 21 19 18 16 14 12
1 3 5 9 3 1 2 1 1 3 4 3 2 5 5 8 8 7 7 7 7 6 5 4 2 2 3 7 9 10 12 14 16 18 21 22 22 22 21 20 19 18 16 14
3 3 1 3 3 4 2 3 0 2 2 2 4 3 6 8 7 9 9 9 7 4 3 2 3 3 4 6 7 9 12 14 17 18 20 21 21 20 21 21 20 19 18 17
2 4 1 0 2 4 2 3 2 0 2 3 4 3 3 12 12 11 9 8 4 3 3 4 4 3 4 5 6 7 9 11 14 15 16 17 17 18 18 18 18 20 20 21
0 0 3 2 2 2 2 2 1 2 2 2 2 2 1 10 14 14 10 6 4 3 4 4 4 4 5 6 8 10 12 14 16 18 19 19 19 19 18 18 19 21 23 23
4 1 3 2 3 1 3 2 4 3 4 0 2 2 1 7 16 17 10 5 4 5 3 3 3 4 6 9 12 14 16 18 18 19 20 20 20 20 19 19 19 20 21 21
3 1 2 3 3 3 5 6 2 1 2 5 2 1 3 7 12 15 10 5 5 6 4 0 3 7 10 13 15 16 17 18 18 19 20 20 20 21 21 21 21 21 20 20
3 1 1 2 4 3 3 8 9 6 3 5 6 1 7 11 12 15 14 6 6 7 6 3 5 9 12 13 14 15 15 16 17 18 19 19 19 20 21 20 21 21 20 20
2 3 3 3 3 3 5 6 11 10 12 7 3 10 9 12 13 15 13 8 8 8 8 5 8 10 11 12 12 14 16 17 17 17 17 17 17 19 20 20 20 20 19 19
3 3 2 3 2 5 10 12 14 16 17 16 17 16 4 3 11 11 8 8 8 6 5 6 8 9 10 11 13 15 16 17 17 17 17 18 18 18 18 18 18 18 19 19
3 2 3 3 2 5 10 17 18 14 11 13 16 12 11 12 14 15 11 10 9 6 4 5 6 8 9 11 12 14 15 16 17 18 19 19 19 19 18 17 17 17 18 18
2 4 2 3 3 5 3 4 0 14 16 12 14 7 2 5 7 5 6 8 5 3 3 4 5 6 7 8 9 11 13 16 17 18 19 20 20 19 18 17 17 18 18 18
2 5 3 3 5 12 6 3 3 4 5 16 14 11 11 5 6 6 9 6 3 3 5 5 6 6 7 8 10 11 12 14 16 19 20 21 21 22 21 21 20 20 21 21
3 4 4 3 4 5 3 4 2 3 5 5 8 9 14 12 6 5 16 8 3 4 5 4 5 6 7 9 10 11 12 13 15 17 19 21 22 23 23 23 22 22 21 21
4 5 12 9 5 7 7 9 7 3 2 5 8 11 16 9 1 8 8 5 6 6 6 5 5 5 6 8 9 11 13 16 17 18 19 20 21 23 24 25 24 24 23 23
8 8 5 6 6 8 12 7 5 2 5 8 8 10 12 7 5 4 4 4 5 6 6 6 5 5 5 7 9 11 13 16 18 20 20 21 21 22 22 23 23 24 24 24
5 4 2 7 4 4 15 2 5 2 8 9 9 9 8 6 4 5 5 4 5 5 5 5 5 6 8 10 12 14 16 18 19 21 23 24 24 23 23 23 23 22 22 22
5 5 3 1 5 13 11 10 9 7 7 8 7 8 8 6 6 6 6 5 5 4 5 6 8 9 9 11 13 15 17 20 22 23 24 24 25 26 26 24 22 22 22 22
2 9 7 8 13 10 13 13 11 9 9 10 9 8 7 6 6 6 6 5 4 5 6 8 9 11 13 15 16 17 19 21 23 24 24 24 25 25 25 24 23 23 20 21
10 7 6 6 3 5 2 3 12 13 11 10 9 8 7 6 6 5 4 5 5 5 8 10 12 14 16 18 20 20 20 21 22 22 23 23 24 24 23 25 27 26 27 25
Wind_Direction
199 197 167 176 178 276 189 222 176 109 127 203 193 166 157 167 179 186 197 210 211 215 215 221 233 242 244 249 254 259 264 273 282 300 311 308 307 318 323 321 323 326 326 325
185 117 42 85 119 208 189 175 172 91 142 244 178 213 146 172 180 202 210 216 224 223 230 241 238 249 251 249 253 255 259 265 276 295 305 308 310 314 316 320 326 328 328 325
117 71 298 184 151 151 201 195 145 164 149 65 179 213 170 176 173 166 187 221 239 243 248 248 242 244 247 248 252 251 250 256 281 297 302 306 310 319 325 319 318 323 324 325
58 38 173 151 101 338 176 5 115 141 154 183 243 203 198 169 164 169 160 166 177 178 114 51 213 222 241 243 241 242 245 263 281 294 302 307 309 309 310 313 319 321 323 322
42 43 39 99 41 359 86 163 117 131 94 185 182 330 131 185 180 163 143 138 131 114 95 75 85 161 212 231 229 238 255 271 285 295 305 309 312 314 312 313 315 315 315 314
82 81 28 44 61 76 135 133 107 110 115 329 118 248 171 179 196 149 142 132 125 108 90 85 78 94 133 223 249 261 271 270 281 296 306 311 311 311 307 306 304 307 301 301
69 43 59 355 101 142 226 174 63 82 62 242 38 209 49 114 87 138 141 131 121 113 104 96 94 84 279 271 272 274 267 259 275 293 302 306 308 306 303 304 300 301 298 294
113 141 8 356 17 349 129 147 129 169 189 156 166 223 141 128 132 139 134 128 121 113 97 78 37 335 306 287 279 272 262 264 274 289 297 302 304 303 301 300 295 294 296 290
137 97 78 21 5 329 170 214 38 95 75 259 159 144 146 160 148 150 142 142 129 107 70 28 360 332 311 305 308 289 279 279 286 293 298 301 303 302 302 297 290 290 296 296
80 110 131 74 271 74 338 118 165 183 129 224 183 239 212 187 176 165 159 153 128 76 57 46 40 4 341 331 328 324 313 306 304 306 310 312 309 303 300 299 293 289 294 296
197 138 145 245 211 162 147 197 244 320 294 271 245 163 23 197 180 173 154 159 140 117 102 77 56 32 4 347 335 326 317 311 306 304 301 301 303 304 305 304 300 295 291 288
23 332 152 96 115 291 292 277 263 251 178 106 335 266 53 163 181 173 165 156 157 152 134 87 38 359 337 328 324 320 314 308 305 304 301 300 302 303 303 302 303 302 299 289
24 246 135 159 185 196 232 191 229 118 352 213 222 189 137 154 172 180 187 179 184 182 177 135 337 329 323 322 323 321 320 317 316 311 307 303 299 297 296 300 303 302 299 294
285 261 284 329 20 28 201 203 207 198 205 220 217 253 194 193 194 198 204 206 207 204 208 250 307 315 319 325 326 326 328 327 326 322 318 312 305 300 299 300 299 295 296 293
268 281 302 270 256 275 272 248 211 208 228 236 254 227 251 204 202 202 207 207 200 203 214 260 294 308 318 326 330 333 337 338 336 331 326 320 317 311 307 304 299 294 290 292
211 195 227 273 245 260 266 259 247 234 244 258 261 265 262 228 197 178 199 194 195 199 215 265 296 311 325 331 338 342 345 347 347 345 339 334 330 323 317 312 307 303 298 294
265 237 218 230 188 277 267 239 228 228 228 239 245 258 254 230 203 225 215 194 186 195 238 275 299 312 324 336 346 348 349 352 354 354 351 348 345 338 328 322 316 310 306 302
259 249 287 305 265 243 67 121 177 224 234 241 249 271 251 236 228 218 200 194 199 244 296 317 321 319 331 346 353 354 358 359 359 357 354 352 351 348 341 332 325 320 316 312
200 221 252 266 249 307 220 207 216 212 267 227 228 219 214 189 159 207 186 181 199 266 287 297 309 321 333 341 345 353 359 357 358 358 357 355 350 349 347 343 336 327 318 313
197 225 232 157 249 256 69 138 129 134 275 158 205 217 183 166 199 217 181 194 238 275 276 287 303 317 326 329 337 345 349 349 349 350 352 352 350 348 345 343 339 335 330 324
180 209 217 220 248 282 123 144 149 236 37 156 182 178 177 194 68 130 171 234 259 260 257 260 272 287 305 320 331 336 339 341 343 345 346 346 347 346 345 342 342 337 333 327
187 178 197 208 221 251 149 139 220 37 143 144 144 153 166 163 154 167 213 241 256 266 278 282 281 285 302 316 323 328 330 334 337 339 341 342 342 341 341 340 340 338 336 333
225 236 222 219 238 111 185 223 196 216 185 184 178 173 175 177 189 205 197 208 227 236 252 275 294 305 312 315 322 325 328 332 335 336 337 337 336 337 336 333 334 334 334 334
236 203 238 314 217 232 231 228 233 216 210 188 186 189 197 191 204 198 196 201 217 252 277 296 310 315 316 315 323 325 327 329 330 330 329 329 328 328 328 327 327 327 329 327
52 156 226 252 277 258 255 236 220 208 200 197 200 207 209 204 198 193 200 212 228 261 284 299 309 313 316 318 322 325 324 325 325 326 328 327 328 328 326 324 323 320 316 315
191 201 206 250 339 250 344 230 222 206 204 203 208 210 213 200 192 198 201 232 261 284 299 306 308 310 313 315 318 320 320 321 321 322 325 327 329 329 326 325 324 324 322 320
Height
1489 1487 1485 1484 1485 1489 1483 1485 1487 1497 1510 1506 1505 1506 1516 1520 1522 1524 1526 1528 1530 1532 1535 1536 1536 1536 1537 1538 1539 1540 1540 1540 1540 1540 1539 1538 1537 1535 1532 1530 1527 1524 1521 1518
1488 1487 1494 1492 1495 1493 1488 1491 1494 1510 1512 1511 1506 1506 1513 1520 1520 1522 1525 1527 1529 1531 1533 1534 1534 1534 1534 1536 1536 1537 1538 1538 1538 1538 1537 1536 1534 1533 1530 1527 1524 1522 1519 1516
1487 1500 1502 1495 1496 1496 1493 1489 1498 1500 1513 1512 1510 1509 1514 1520 1522 1523 1525 1527 1528 1530 1531 1532 1533 1532 1532 1533 1533 1535 1536 1536 1536 1536 1535 1534 1532 1529 1527 1525 1522 1520 1517 1514
1502 1505 1500 1495 1501 1504 1502 1508 1499 1506 1509 1516 1514 1514 1507 1513 1518 1521 1524 1526 1528 1529 1530 1529 1529 1529 1529 1530 1532 1533 1534 1534 1534 1534 1533 1532 1530 1528 1526 1523 1520 1517 1515 1512
1513 1509 1502 1500 1510 1510 1511 1511 1506 1508 1519 1514 1515 1522 1504 1512 1516 1518 1522 1526 1528 1529 1528 1528 1528 1528 1528 1530 1531 1531 1532 1532 1532 1531 1531 1529 1528 1525 1523 1520 1518 1515 1513 1511
1512 1515 1516 1514 1514 1511 1514 1511 1512 1514 1527 1526 1521 1523 1513 1510 1506 1515 1522 1525 1526 1528 1528 1528 1527 1528 1529 1530 1530 1530 1530 1530 1530 1529 1528 1527 1525 1523 1520 1519 1516 1514 1512 1510
1511 1516 1518 1519 1512 1515 1513 1507 1534 1527 1536 1515 1548 1534 1507 1511 1512 1515 1520 1524 1526 1527 1528 1528 1529 1529 1529 1529 1529 1529 1528 1529 1528 1527 1526 1524 1522 1520 1517 1515 1514 1512 1510 1509
1511 1522 1521 1522 1519 1515 1516 1517 1514 1515 1517 1507 1537 1514 1507 1514 1519 1521 1522 1524 1525 1527 1528 1528 1528 1528 1528 1528 1527 1527 1526 1526 1526 1525 1523 1521 1519 1516 1513 1512 1510 1509 1507 1506
1507 1518 1524 1525 1523 1521 1516 1515 1518 1516 1523 1511 1503 1506 1515 1517 1519 1520 1522 1524 1525 1527 1528 1528 1527 1527 1526 1526 1525 1524 1524 1523 1522 1521 1519 1516 1514 1512 1510 1508 1506 1505 1504 1503
1509 1519 1523 1524 1524 1522 1518 1519 1517 1519 1523 1511 1503 1502 1499 1515 1515 1518 1520 1523 1525 1525 1526 1526 1525 1525 1525 1524 1523 1522 1521 1520 1519 1517 1515 1513 1510 1508 1506 1504 1503 1502 1500 1499
1511 1509 1524 1524 1517 1515 1520 1516 1517 1512 1511 1505 1498 1497 1503 1512 1511 1515 1519 1522 1523 1524 1525 1525 1525 1524 1524 1523 1522 1521 1519 1517 1516 1513 1511 1509 1507 1505 1502 1500 1499 1497 1495 1494
1516 1507 1515 1514 1522 1524 1521 1513 1509 1510 1512 1514 1512 1505 1506 1505 1509 1514 1518 1520 1521 1523 1523 1523 1523 1523 1523 1521 1520 1518 1516 1513 1511 1509 1507 1504 1502 1500 1499 1497 1495 1493 1491 1489
1515 1509 1516 1517 1522 1523 1519 1515 1514 1514 1517 1510 1509 1501 1507 1508 1510 1514 1517 1518 1520 1521 1522 1522 1522 1522 1521 1519 1517 1515 1512 1508 1507 1504 1502 1500 1498 1496 1495 1492 1490 1488 1486 1485
1518 1510 1510 1508 1509 1507 1515 1514 1514 1514 1513 1499 1506 1502 1506 1508 1509 1511 1514 1516 1517 1519 1520 1521 1521 1520 1518 1516 1514 1511 1508 1505 1503 1500 1498 1495 1493 1491 1489 1487 1485 1483 1482 1480
1516 1513 1512 1508 1511 1513 1511 1509 1513 1518 1503 1499 1491 1496 1494 1499 1503 1507 1511 1513 1515 1516 1518 1519 1518 1517 1515 1514 1511 1508 1505 1503 1500 1497 1495 1492 1489 1487 1484 1482 1480 1478 1477 1476
1515 1508 1513 1514 1512 1513 1512 1507 1506 1505 1505 1501 1496 1495 1497 1499 1504 1508 1510 1512 1513 1515 1516 1516 1517 1516 1512 1512 1509 1506 1503 1501 1498 1495 1492 1489 1485 1483 1480 1478 1476 1474 1472 1470
1516 1512 1512 1502 1512 1510 1502 1489 1494 1494 1493 1496 1497 1492 1493 1496 1501 1505 1507 1510 1512 1514 1515 1515 1514 1513 1511 1509 1506 1504 1503 1500 1497 1494 1490 1486 1483 1480 1478 1475 1473 1471 1468 1466
1514 1514 1513 1506 1508 1503 1482 1490 1490 1483 1487 1490 1492 1493 1496 1499 1503 1506 1509 1511 1513 1514 1514 1513 1512 1511 1509 1507 1505 1503 1501 1498 1496 1493 1489 1486 1482 1479 1476 1473 1470 1467 1465 1462
1516 1510 1509 1510 1499 1483 1479 1491 1493 1491 1480 1481 1484 1489 1494 1499 1503 1506 1508 1510 1511 1511 1511 1511 1511 1510 1509 1507 1505 1503 1500 1498 1496 1493 1489 1485 1482 1478 1474 1471 1467 1464 1461 1459
1518 1516 1511 1511 1508 1493 1484 1491 1493 1493 1487 1484 1487 1490 1494 1499 1499 1496 1502 1505 1507 1507 1508 1508 1508 1507 1507 1506 1504 1502 1500 1497 1495 1491 1488 1484 1481 1477 1473 1469 1465 1462 1458 1455
1515 1512 1508 1504 1503 1488 1487 1491 1493 1492 1486 1487 1488 1489 1494 1499 1500 1502 1503 1505 1507 1506 1506 1505 1504 1503 1503 1503 1502 1500 1498 1496 1492 1489 1486 1482 1479 1475 1471 1467 1464 1460 1456 1452
1500 1502 1504 1502 1500 1498 1487 1493 1492 1488 1488 1489 1491 1493 1494 1496 1497 1500 1502 1503 1505 1506 1506 1505 1504 1503 1501 1500 1498 1496 1494 1492 1489 1486 1483 1480 1476 1473 1469 1465 1462 1458 1454 1450
1498 1489 1489 1490 1484 1484 1484 1484 1485 1487 1488 1490 1490 1491 1494 1496 1497 1498 1498 1499 1501 1501 1502 1502 1502 1502 1500 1498 1496 1493 1491 1487 1484 1481 1479 1476 1473 1469 1466 1462 1458 1455 1452 1448
1494 1493 1491 1491 1476 1482 1484 1484 1484 1485 1487 1488 1491 1492 1492 1493 1495 1496 1496 1497 1498 1499 1500 1500 1499 1498 1496 1495 1493 1491 1487 1484 1481 1477 1474 1471 1468 1465 1462 1459 1455 1451 1448 1446
1488 1492 1487 1483 1479 1481 1479 1479 1482 1484 1484 1486 1487 1489 1491 1492 1493 1494 1495 1495 1495 1496 1496 1496 1495 1494 1493 1491 1489 1486 1483 1480 1477 1473 1470 1466 1463 1460 1456 1453 1450 1447 1445 1442
1483 1479 1480 1471 1473 1474 1475 1476 1477 1480 1482 1484 1486 1487 1489 1491 1492 1493 1493 1494 1494 1494 1493 1492 1491 1489 1488 1486 1485 1482 1479 1475 1472 1469 1466 1462 1458 1456 1452 1448 1444 1443 1439 1436